Hourly Data Report for January 16, 2022

OTTAWA INTL A
ONTARIO
Current Station Operator: NAVCAN

45°19'00.000" N
75°40'00.000" W
114.90 m
6106001
71628
YOW

Download Data

Hourly Data (January 2022)
Hourly Data Report for January 16, 2022
TIME
LST
Temp Definition
°C
Dew Point Definition
°C
Rel Hum Definition
%
Precip. Amount Definition
mm

Wind Dir Definition
10's deg

Wind Spd Definition
km/h
Visibility Definition
km
Stn Press Definition
kPa
Hmdx Definition


Wind Chill Definition


Weather Definition


00:00 -25.8 -29.2 74   20 7 24.1 101.82   -32 LegendNANA
01:00 -25.0 -28.7 72   20 5 24.1 101.74   -30 Clear
02:00 -26.4 -29.6 74   18 5 24.1 101.76   -32 LegendNANA
03:00 -25.4 -28.7 74   18 4 24.1 101.66   -29 LegendNANA
04:00 -27.5 -30.7 75   17 6 24.1 101.57   -34 Clear
05:00 -25.1 -28.7 72   10 3 24.1 101.54   -28 LegendNANA
06:00 -26.7 -29.7 77   16 5 24.1 101.52   -32 LegendNANA
07:00 -26.3 -29.6 74   8 5 24.1 101.54   -31 Clear
08:00 -26.4 -29.5 76   6 8 24.1 101.51   -34 LegendNANA
09:00 -24.1 -27.9 71   6 7 24.1 101.43   -30 LegendNANA
10:00 -21.8 -26.6 65   6 7 24.1 101.40   -28 Mainly Clear
11:00 -19.2 -24.9 61   6 12 24.1 101.27   -27 LegendNANA
12:00 -17.4 -25.8 49   9 12 24.1 101.11   -25 LegendNANA
13:00 -16.1 -24.5 49   7 14 24.1 100.96   -24 Clear
14:00 -15.2 -23.6 49   9 15 24.1 100.81   -23 LegendNANA
15:00 -14.9 -23.5 49   10 17 24.1 100.71   -23 LegendNANA
16:00 -14.6 -23.4 48   6 12 24.1 100.56   -21 Clear
17:00 -17.3 -24.0 57   4 14 24.1 100.53   -25 LegendNANA
18:00 -17.7 -24.6 56   6 14 24.1 100.45   -26 LegendNANA
19:00 -17.4 -23.9 58   7 13 24.1 100.44   -25 Mainly Clear
20:00 -17.7 -23.2 63   6 14 24.1 100.36   -26 LegendNANA
21:00 -17.4 -21.8 69   7 15 24.1 100.21   -26 LegendNANA
22:00 -17.6 -21.6 72   6 16 24.1 100.11   -26 Mostly Cloudy
23:00 -17.2 -21.2 71   6 15 24.1 100.06   -26 LegendNANA

Notes on Data Quality.

Legend

  • E = Estimated
  • M = Missing
  • NA = Not Available*
  • [empty] = Indicates an unobserved value
Date modified: